Weather History for Lamar, CO

Change the Weather History Date:

Monday, December 31, 2012

  Actual Average Record
Temperature  
Mean Temperature 20 °F 28 °F  
Max Temperature 25 °F 43 °F 68 °F (1996)
Min Temperature 15 °F 12 °F -16 °F (1990)
Degree Days  
Heating Degree Days 45 37  
Month to date heating degree days 1071 1097  
Since 1 July heating degree days 2150 2313  
Cooling Degree Days 0 0  
Month to date cooling degree days 0 0  
Year to date cooling degree days 1626 1121  
Moisture  
Dew Point 17 °F    
Average Humidity 77    
Maximum Humidity 92    
Minimum Humidity 62    
Precipitation  
Precipitation 0.05 in 0.01 in 0.10 in (1924)
Month to date precipitation 0.12 0.40  
Year to date precipitation 6.18 15.20  
Sea Level Pressure  
Sea Level Pressure 30.03 in    
Wind  
Wind Speed 6 mph (North)    
Max Wind Speed 13 mph    
Max Gust Speed 15 mph    
Visibility 4 miles    
Events Fog , Snow    
T = Trace of Precipitation, MM = Missing Value Source: NWS Daily Summary

Daily Weather History Graph

Daily Weather History Graph

Search for Another Location

Airport:

Trip Planner

Search our weather history database for the weather conditions in past years. The results will help you decide how hot, cold, wet, or windy it might be!

Date:

Astronomy

Dec. 31, 2012 Rise Set
Actual Time 7:06 AM MST 4:41 PM MST
Civil Twilight 6:37 AM MST 5:10 PM MST
Nautical Twilight 6:04 AM MST 5:43 PM MST
Astronomical Twilight 5:32 AM MST 6:15 PM MST
Moon 8:10 PM MST 8:52 AM MST
Length of Visible Light 10h 33m
Length of Day
9h 34m
Waning Gibbous, 90% of the Moon is Illuminated
Dec 31
Waning Gibbous
Jan 4
Last Quarter
Jan 11
New
Jan 18
First Quarter
Jan 26
Full

Hourly Weather History & Observations

Time (MST) Temp. Windchill Dew Point Humidity Pressure Visibility Wind Dir Wind Speed Gust Speed Precip Events Conditions
12:53 AM 24.1 °F 17.0 °F 15.1 °F 69% 30.02 in 10.0 mi North 5.8 mph - N/A   Mostly Cloudy
1:53 AM 24.1 °F 16.0 °F 16.0 °F 71% 30.01 in 10.0 mi NNE 6.9 mph - N/A   Overcast
2:53 AM 24.1 °F 15.2 °F 16.0 °F 71% 30.01 in 10.0 mi NNE 8.1 mph - N/A   Overcast
3:53 AM 24.1 °F 13.7 °F 16.0 °F 71% 29.99 in 10.0 mi NNE 10.4 mph - N/A   Overcast
4:53 AM 23.0 °F 13.9 °F 15.1 °F 72% 29.99 in 10.0 mi North 8.1 mph - N/A   Partly Cloudy
5:53 AM 21.9 °F 12.5 °F 15.1 °F 75% 30.01 in 10.0 mi NNE 8.1 mph - N/A   Overcast
6:03 AM 21.2 °F 12.6 °F 15.8 °F 80% 29.95 in 10.0 mi NNE 6.9 mph - N/A   Overcast
6:53 AM 21.9 °F 11.7 °F 16.0 °F 78% 30.02 in 10.0 mi NNE 9.2 mph - N/A   Overcast
7:53 AM 21.9 °F 12.5 °F 16.0 °F 78% 30.04 in 10.0 mi NNE 8.1 mph - N/A   Overcast
8:31 AM 21.2 °F 12.6 °F 17.6 °F 86% 29.98 in 2.0 mi NNE 6.9 mph - 0.00 in Snow Light Snow
8:37 AM 21.2 °F 10.9 °F 17.6 °F 86% 29.98 in 1.5 mi NNE 9.2 mph - 0.00 in Snow Light Snow
8:41 AM 21.2 °F 10.9 °F 17.6 °F 86% 29.98 in 1.2 mi NNE 9.2 mph - 0.00 in Snow Light Snow
8:53 AM 21.9 °F 10.4 °F 18.0 °F 85% 30.06 in 1.0 mi NNE 11.5 mph - 0.00 in Snow Light Snow
9:00 AM 21.2 °F 10.1 °F 17.6 °F 86% 29.99 in 0.8 mi NNE 10.4 mph - 0.00 in Snow Light Snow
9:07 AM 21.2 °F 11.7 °F 17.6 °F 86% 29.99 in 1.2 mi NNE 8.1 mph - 0.00 in Snow Light Snow
9:13 AM 21.2 °F 10.9 °F 17.6 °F 86% 29.99 in 2.0 mi NNE 9.2 mph - 0.00 in Snow Light Snow
9:19 AM 21.2 °F 10.9 °F 17.6 °F 86% 29.99 in 2.5 mi NNE 9.2 mph - 0.00 in Snow Light Snow
9:28 AM 21.2 °F 10.9 °F 17.6 °F 86% 29.99 in 3.0 mi NNE 9.2 mph - 0.00 in   Haze
9:53 AM 21.9 °F 11.7 °F 17.1 °F 82% 30.09 in 3.0 mi NNE 9.2 mph - 0.00 in Snow Light Snow
10:02 AM 21.2 °F 10.9 °F 17.6 °F 86% 30.00 in 2.5 mi NNE 9.2 mph - 0.00 in Snow Light Snow
10:11 AM 21.2 °F 11.7 °F 17.6 °F 86% 30.01 in 1.5 mi North 8.1 mph - 0.00 in Snow Light Snow
10:19 AM 21.2 °F 11.7 °F 17.6 °F 86% 30.01 in 1.2 mi NNE 8.1 mph - 0.00 in Snow Light Snow
10:27 AM 21.2 °F 10.9 °F 17.6 °F 86% 30.01 in 1.0 mi NNE 9.2 mph - 0.00 in Snow Light Snow
10:39 AM 21.2 °F 12.6 °F 17.6 °F 86% 30.01 in 0.8 mi NNE 6.9 mph - 0.00 in Snow Light Snow
10:53 AM 21.9 °F 13.4 °F 18.0 °F 85% 30.09 in 0.5 mi North 6.9 mph - 0.00 in Fog , Snow Snow
11:53 AM 23.0 °F 13.1 °F 18.0 °F 81% 30.06 in 0.8 mi North 9.2 mph - 0.03 in Snow Light Snow
12:03 PM 23.0 °F 14.7 °F 19.4 °F 86% 29.97 in 0.8 mi North 6.9 mph - 0.00 in Snow Light Snow
12:12 PM 23.0 °F 13.1 °F 19.4 °F 86% 29.97 in 0.8 mi North 9.2 mph - 0.00 in Snow Light Snow
12:36 PM 23.0 °F 13.9 °F 19.4 °F 86% 29.96 in 1.0 mi North 8.1 mph - 0.00 in Snow Light Snow
12:42 PM 24.8 °F 15.3 °F 19.4 °F 80% 29.96 in 1.5 mi North 9.2 mph - 0.00 in Snow Light Snow
12:51 PM 24.8 °F 16.9 °F 19.4 °F 80% 29.96 in 2.5 mi North 6.9 mph - 0.00 in Snow Light Snow
12:53 PM 24.1 °F 14.4 °F 19.0 °F 81% 30.04 in 2.5 mi NNW 9.2 mph - 0.00 in Snow Light Snow
1:01 PM 24.8 °F 14.0 °F 17.6 °F 74% 29.95 in 3.0 mi North 11.5 mph - 0.00 in Snow Light Snow
1:28 PM 24.8 °F 15.3 °F 19.4 °F 80% 29.96 in 1.8 mi North 9.2 mph - 0.00 in Snow Light Snow
1:34 PM 24.8 °F 16.9 °F 19.4 °F 80% 29.96 in 1.2 mi North 6.9 mph - 0.00 in Snow Light Snow
1:45 PM 23.0 °F 13.9 °F 19.4 °F 86% 29.96 in 1.0 mi NNW 8.1 mph - 0.00 in Snow Light Snow
1:53 PM 23.0 °F 13.9 °F 19.0 °F 85% 30.05 in 0.8 mi North 8.1 mph - 0.00 in Snow Light Snow
2:14 PM 23.0 °F 13.9 °F 19.4 °F 86% 29.96 in 1.0 mi North 8.1 mph - 0.00 in Snow Light Snow
2:24 PM 24.8 °F 16.9 °F 19.4 °F 80% 29.96 in 1.5 mi NNW 6.9 mph - 0.00 in Snow Light Snow
2:40 PM 24.8 °F 17.9 °F 19.4 °F 80% 29.96 in 2.0 mi NNW 5.8 mph - 0.00 in Snow Light Snow
2:53 PM 25.0 °F 17.1 °F 19.9 °F 81% 30.04 in 3.0 mi NNW 6.9 mph - 0.00 in Snow Light Snow
3:43 PM 23.0 °F 14.7 °F 17.6 °F 80% 29.98 in 8.0 mi NNE 6.9 mph - 0.00 in   Scattered Clouds
3:53 PM 23.0 °F 14.7 °F 18.0 °F 81% 30.06 in 9.0 mi NNE 6.9 mph - 0.00 in   Partly Cloudy
4:26 PM 21.2 °F 14.9 °F 17.6 °F 86% 29.99 in 8.0 mi NE 4.6 mph - N/A   Mostly Cloudy
4:39 PM 19.4 °F 11.5 °F 15.8 °F 86% 29.99 in 7.0 mi NNE 5.8 mph - N/A   Scattered Clouds
4:53 PM 19.0 °F 12.3 °F 16.0 °F 88% 30.09 in 8.0 mi NE 4.6 mph - N/A   Clear
5:53 PM 19.0 °F - 17.1 °F 92% 30.12 in 10.0 mi Calm Calm - N/A   Overcast
6:53 PM 17.1 °F - 14.0 °F 88% 30.15 in 6.0 mi Calm Calm - N/A   Overcast
7:53 PM 19.0 °F - 16.0 °F 88% 30.16 in 2.0 mi Calm Calm - 0.01 in Snow Light Snow
8:22 PM 19.4 °F - 15.8 °F 86% 30.07 in 3.0 mi Calm Calm - 0.00 in Snow Light Snow
8:53 PM 19.0 °F - 16.0 °F 88% 30.18 in 3.0 mi Calm Calm - 0.00 in Snow Light Snow
9:24 PM 17.6 °F - 15.8 °F 93% 30.08 in 2.0 mi Calm Calm - 0.00 in Snow Light Snow
9:31 PM 17.6 °F - 15.8 °F 93% 30.09 in 1.8 mi Calm Calm - 0.00 in Snow Light Snow
9:39 PM 17.6 °F - 15.8 °F 93% 30.09 in 2.5 mi Calm Calm - 0.00 in Snow Light Snow
9:53 PM 18.0 °F - 16.0 °F 92% 30.20 in 2.5 mi Calm Calm - 0.00 in Snow Light Snow
10:23 PM 17.6 °F 12.3 °F 15.8 °F 93% 30.09 in 4.0 mi WNW 3.5 mph - 0.00 in Snow Light Snow
10:38 PM 17.6 °F - 15.8 °F 93% 30.09 in 1.8 mi Calm Calm - 0.00 in Snow Light Snow
10:45 PM 17.6 °F - 15.8 °F 93% 30.10 in 1.2 mi Calm Calm - 0.00 in Snow Light Snow
10:53 PM 18.0 °F - 15.1 °F 88% 30.21 in 1.5 mi Calm Calm - 0.00 in Snow Light Snow
11:48 PM 17.6 °F 12.3 °F 15.8 °F 93% 30.09 in 2.5 mi West 3.5 mph - 0.01 in Snow Light Snow
11:53 PM 17.1 °F 11.7 °F 14.0 °F 88% 30.20 in 3.0 mi West 3.5 mph - 0.01 in Snow Light Snow